Weather History for San Jose, Costa Rica

Change the Weather History Date:

Wednesday, February 5, 2014

  Actual Average Record
Temperature  
Mean Temperature 75 °F -  
Max Temperature 84 °F 81 °F 86 °F (2003)
Min Temperature 66 °F 64 °F 62 °F (1997)
Cooling Degree Days 10    
Growing Degree Days 25 (Base 50)    
Moisture  
Dew Point 58 °F    
Average Humidity 57    
Maximum Humidity 73    
Minimum Humidity 32    
Precipitation  
Precipitation 0.00 in 0.01 in - ()
Sea Level Pressure  
Sea Level Pressure 29.95 in    
Wind  
Wind Speed 9 mph ()    
Max Wind Speed 22 mph    
Max Gust Speed 29 mph    
Visibility 8.3 miles    
Events      
Averages and records for this station are not official NWS values.
T = Trace of Precipitation, MM = Missing Value Source: Averaged Metar Reports

Daily Weather History Graph

Daily Weather History Graph

Search for Another Location

Airport:

Trip Planner

Search our weather history database for the weather conditions in past years. The results will help you decide how hot, cold, wet, or windy it might be!

Date:

Astronomy

Feb. 05, 2014 Rise Set
Actual Time 5:58 AM CST 5:43 PM CST
Civil Twilight 5:37 AM CST 6:04 PM CST
Nautical Twilight 5:11 AM CST 6:29 PM CST
Astronomical Twilight 4:46 AM CST 6:55 PM CST
Moon 10:30 AM CST (2/5) 11:14 PM CST (2/5)
Length of Visible Light 12h 27m
Length of Day
11h 44m
Waxing Crescent, 39% of the Moon is Illuminated
Feb 5
Waxing Crescent
Feb 6
First Quarter
Feb 14
Full
Feb 22
Last Quarter
Mar 1
New

Hourly Weather History & Observations

Time (CST) Temp. Heat Index Dew Point Humidity Pressure Visibility Wind Dir Wind Speed Gust Speed Precip Events Conditions
12:00 AM 68 °F - 58 °F 61% 29.86 in 12 mi East 6.9 mph - -  
12:00 AM 68.0 °F - 57.2 °F 68% 30.02 in - East 6.9 mph - N/A   Clear
1:00 AM 68.0 °F - 57.2 °F 68% 30.00 in - East 8.1 mph - N/A   Clear
2:00 AM 66.2 °F - 57.2 °F 73% 29.98 in - NE 3.5 mph - N/A   Clear
3:00 AM 69 °F - 56 °F 55% 29.78 in 12 mi ENE 10.4 mph - -  
3:00 AM 69.8 °F - 57.2 °F 64% 29.97 in - ENE 10.4 mph - N/A   Clear
4:00 AM 68.0 °F - 57.2 °F 68% 29.97 in - ENE 6.9 mph - N/A   Clear
5:00 AM 68.0 °F - 57.2 °F 68% 29.98 in - East 9.2 mph - N/A   Clear
6:00 AM 67 °F - 57 °F 62% 29.83 in 12 mi ESE 21.9 mph - -  
6:00 AM 68.0 °F - 57.2 °F 68% 29.99 in - ESE 10.4 mph 21.9 mph N/A   Clear
7:00 AM 69.8 °F - 57.2 °F 64% 30.01 in - East 8.1 mph 19.6 mph N/A   Clear
8:00 AM 73.4 °F - 57.2 °F 57% 30.02 in 6.2 mi ESE 12.7 mph 25.3 mph N/A   Partly Cloudy
9:00 AM 75 °F - 58 °F 46% 29.90 in 12 mi ESE 17.3 mph - -   Scattered Clouds
9:00 AM 75.2 °F - 59.0 °F 57% 30.04 in 6.2 mi ESE 17.3 mph 28.8 mph N/A   Partly Cloudy
10:00 AM 78.8 °F - 59.0 °F 51% 30.02 in 6.2 mi ESE 12.7 mph 24.2 mph N/A   Partly Cloudy
11:00 AM 80.6 °F 81.1 °F 59.0 °F 48% 30.01 in 6.2 mi East 11.5 mph 23.0 mph N/A   Partly Cloudy
12:00 PM 80 °F - 59 °F 38% 29.84 in 12 mi ENE 12.7 mph - -   Partly Cloudy
12:00 PM 80.6 °F 81.1 °F 59.0 °F 48% 29.99 in 6.2 mi East 12.7 mph 24.2 mph N/A   Scattered Clouds
1:00 PM 80.6 °F 80.8 °F 57.2 °F 45% 29.97 in 6.2 mi East 10.4 mph 21.9 mph N/A   Scattered Clouds
2:00 PM 84.2 °F 83.5 °F 57.2 °F 40% 29.94 in 6.2 mi East 17.3 mph - N/A   Scattered Clouds
3:00 PM 82 °F - 57 °F 32% 29.78 in 12 mi ESE 10.4 mph - -   Partly Cloudy
3:00 PM 82.4 °F 82.0 °F 57.2 °F 42% 29.93 in 6.2 mi ESE 10.4 mph - N/A   Scattered Clouds
4:00 PM 80.6 °F 80.8 °F 57.2 °F 45% 29.93 in 6.2 mi ESE 10.4 mph - N/A   Scattered Clouds
5:00 PM 77.0 °F - 59.0 °F 54% 29.95 in 6.2 mi ESE 10.4 mph - N/A   Mostly Cloudy
6:00 PM 72 °F - 58 °F 53% 29.84 in 12 mi ESE 11.5 mph - -   Scattered Clouds
6:00 PM 71.6 °F - 59.0 °F 64% 29.97 in 6.2 mi ESE 11.5 mph - N/A   Scattered Clouds
7:00 PM 69.8 °F - 57.2 °F 64% 30.00 in 6.2 mi ESE 12.7 mph - N/A   Partly Cloudy
8:00 PM 68.0 °F - 57.2 °F 68% 30.01 in 6.2 mi ESE 10.4 mph - N/A   Partly Cloudy
9:00 PM 68 °F - 58 °F 63% 29.90 in 12 mi East 12.7 mph - -   Scattered Clouds
9:00 PM 68.0 °F - 59.0 °F 73% 30.04 in 6.2 mi East 12.7 mph 24.2 mph N/A   Partly Cloudy
10:00 PM 68.0 °F - 57.2 °F 68% 30.04 in - East 12.7 mph 24.2 mph N/A   Clear
11:00 PM 68.0 °F - 55.4 °F 64% 30.03 in - ESE 11.5 mph - N/A   Clear